Lubbock, TX

4:39 PM CST on November 22, 2019 (GMT -0600)
Lubbock International

Weather History for KLBB - August, 2019

Change the Weather History Date:

Saturday, August 3, 2019

  Actual Average Record
Temperature  
Mean Temperature 85 °F 80 °F  
Max Temperature 97 °F 93 °F 107 °F (1944)
Min Temperature 72 °F 68 °F 56 °F (1921)
Degree Days  
Heating Degree Days 0 0  
Month to date heating degree days 0 0  
Since 1 June heating degree days 0 2  
Since 1 July heating degree days 0 0  
Cooling Degree Days 20 15  
Month to date cooling degree days 63 45  
Year to date cooling degree days 1170 1138  
Since 1 June cooling degree days 960 892  
Growing Degree Days 35 (Base 50)    
Moisture  
Dew Point 62 °F    
Average Humidity 62    
Maximum Humidity 90    
Minimum Humidity 33    
Precipitation  
Precipitation 0.03 in 0.07 in 1.73 in (1914)
Month to date precipitation 0.03 0.18  
Year to date precipitation 13.48 11.34  
Snow  
Snow 0.00 in 0.00 in 0.00 in (2002)
Month to date snowfall 0.0 0.0  
Since 1 June snowfall 0.0 0.0  
Since 1 July snowfall 0.0 0.0  
Snow Depth 0.00 in    
Sea Level Pressure  
Sea Level Pressure 29.88 in    
Wind  
Wind Speed 9 mph (NNW)    
Max Wind Speed 28 mph    
Max Gust Speed 38 mph    
Visibility 10 miles    
Events Rain , Thunderstorm    
T = Trace of Precipitation, MM = Missing Value Source: NWS Daily Summary

Daily Weather History Graph

Daily Weather History Graph

Search for Another Location

Airport or City:

Astronomy

Aug. 03, 2019 Rise Set
Actual Time 7:00 AM CDT 8:45 PM CDT
Civil Twilight 6:33 AM CDT 9:12 PM CDT
Nautical Twilight 6:00 AM CDT 9:45 PM CDT
Astronomical Twilight 5:26 AM CDT 10:19 PM CDT
Moon 9:49 AM CDT (8/3) 11:00 PM CDT (8/3)
Length of Visible Light 14h 39m
Length of Day
13h 45m
Waxing Crescent, 10% of the Moon is Illuminated
Aug 3
Waxing Crescent
Aug 7
First Quarter
Aug 15
Full
Aug 23
Last Quarter
Aug 30
New

Hourly Weather History & Observations

Time (CDT) Temp. Heat Index Dew Point Humidity Pressure Visibility Wind Dir Wind Speed Gust Speed Precip Events Conditions
12:53 AM 84.9 °F 83.3 °F 54.0 °F 34% 29.85 in 10.0 mi South 12.7 mph - N/A   Mostly Cloudy
1:53 AM 82.0 °F 81.3 °F 54.0 °F 38% 29.85 in 10.0 mi South 9.2 mph - N/A   Mostly Cloudy
2:53 AM 82.9 °F 81.9 °F 54.0 °F 37% 29.86 in 10.0 mi WNW 9.2 mph - N/A   Mostly Cloudy
3:53 AM 80.1 °F 80.0 °F 54.0 °F 40% 29.86 in 10.0 mi WSW 5.8 mph - N/A   Mostly Cloudy
4:53 AM 81.0 °F 80.5 °F 54.0 °F 39% 29.83 in 10.0 mi SW 6.9 mph - N/A   Mostly Cloudy
5:53 AM 77.0 °F - 55.0 °F 47% 29.83 in 10.0 mi WSW 4.6 mph - N/A   Overcast
6:53 AM 75.0 °F - 55.9 °F 51% 29.84 in 10.0 mi West 8.1 mph - N/A   Mostly Cloudy
7:53 AM 75.9 °F - 57.9 °F 54% 29.86 in 10.0 mi WNW 8.1 mph - N/A   Mostly Cloudy
8:53 AM 81.0 °F 81.7 °F 61.0 °F 50% 29.87 in 10.0 mi North 3.5 mph - N/A   Mostly Cloudy
9:53 AM 84.0 °F 84.4 °F 61.0 °F 46% 29.88 in 10.0 mi North 6.9 mph - N/A   Mostly Cloudy
10:53 AM 84.9 °F 85.9 °F 63.0 °F 48% 29.89 in 10.0 mi North 9.2 mph - N/A   Overcast
11:53 AM 89.1 °F 89.3 °F 62.1 °F 40% 29.89 in 10.0 mi NNE 9.2 mph - N/A   Mostly Cloudy
12:53 PM 93.0 °F 93.8 °F 62.1 °F 36% 29.88 in 10.0 mi ENE 9.2 mph - N/A   Mostly Cloudy
1:53 PM 95.0 °F 95.6 °F 62.1 °F 33% 29.87 in 10.0 mi East 10.4 mph 21.9 mph N/A   Mostly Cloudy
2:53 PM 96.1 °F 96.9 °F 62.1 °F 32% 29.84 in 10.0 mi ENE 8.1 mph - N/A   Mostly Cloudy
3:14 PM 95.0 °F 95.6 °F 62.1 °F 33% 30.02 in 10.0 mi East 13.8 mph - N/A Thunderstorm Thunderstorm
3:53 PM 84.9 °F 87.1 °F 66.0 °F 53% 29.84 in 10.0 mi East 11.5 mph 25.3 mph 0.00 in Rain , Thunderstorm Light Thunderstorms and Rain
4:53 PM 79.0 °F - 70.0 °F 74% 29.86 in 10.0 mi NW 12.7 mph 21.9 mph 0.02 in Thunderstorm Thunderstorm
6:11 PM 75.9 °F - 66.9 °F 74% 30.02 in 10.0 mi West 9.2 mph - 0.00 in   Overcast
6:53 PM 77.0 °F - 69.1 °F 76% 29.87 in 10.0 mi North 5.8 mph - 0.00 in   Overcast
7:53 PM 73.9 °F - 66.9 °F 79% 29.91 in 10.0 mi WNW 10.4 mph - N/A   Overcast
8:53 PM 73.9 °F - 66.9 °F 79% 29.90 in 10.0 mi West 5.8 mph - N/A   Overcast
9:53 PM 73.0 °F - 68.0 °F 84% 29.91 in 10.0 mi North 4.6 mph - N/A   Mostly Cloudy
10:53 PM 73.0 °F - 69.1 °F 87% 29.94 in 10.0 mi North 8.1 mph - N/A   Mostly Cloudy
11:53 PM 72.0 °F - 68.0 °F 87% 29.93 in 10.0 mi NNE 9.2 mph - N/A   Mostly Cloudy